[[{"header":{"parameterUnit":"m.s-1","parameterCategory":1,"la1":30.2991,"la2":30.254,"lo1":-89.0895,"lo2":-89.0444,"dy":0.0017,"dx":0.0017,"nx":28,"ny":28,"refTime":"2024-08-22T09:00:00:Z","depth":0,"parameterNumber":2,"parameterNumberName":"U-component_of_WINDS"},"data":[0,0,0,0,0,0,0,0,0,0,0,0,0,0,0,0,0,0,0,0,0,0,0,0,0,0,0,0,0,0,0,0,0,0,0,0,0,0,0,0,0,0,0,0,0,0,0,0,0,0,0,0,0,0,0,0,0,0,-5.7411,-5.741,0,-5.7386,-5.7385,-5.7385,-5.7223,-5.7219,-5.7215,-5.7211,-5.7186,-5.7189,-5.7192,0,0,0,0,0,0,0,0,0,0,0,0,0,-5.732,-5.7322,-5.7411,-5.741,-5.741,-5.7386,-5.7385,-5.7385,-5.7223,-5.7219,-5.7214,-5.7209,-5.7185,-5.7189,-5.7193,0,0,0,0,0,0,0,0,0,0,0,0,0,-5.7334,-5.7323,-5.7411,-5.7326,-5.7319,-5.7386,-5.7385,-5.7385,-5.7224,-5.7219,-5.7213,-5.7207,-5.7184,-5.7189,-5.7193,-5.7339,0,0,-5.7207,-5.7209,0,0,0,0,0,0,0,0,-5.7333,-5.7337,-5.7339,-5.7332,-5.7324,-5.7301,-5.7344,-5.737,-5.7226,-5.726,-5.7211,-5.7204,-5.723,-5.723,-5.7238,-5.7338,-5.7337,-5.7207,-5.721,-5.7212,-5.7213,0,0,0,0,0,0,0,-5.7332,-5.7337,-5.7401,-5.7339,-5.733,-5.729,-5.7286,-5.7348,-5.7278,-5.7257,-5.7245,-5.7244,-5.7224,-5.7234,-5.7236,-5.7337,-5.7207,-5.7211,-5.7214,-5.7216,-5.7555,-5.7561,0,0,0,0,0,0,-5.7343,-5.7338,-5.7401,-5.74,-5.7314,-5.7297,-5.7292,-5.7314,-5.7277,-5.7266,-5.7249,-5.7237,-5.7229,-5.7231,-5.7235,-5.7402,-5.7212,-5.7216,-5.7219,-5.7548,-5.7556,-5.7563,0,0,0,0,0,0,-5.7342,-5.735,-5.7402,-5.7366,-5.7369,-5.7305,-5.7332,-5.7317,-5.7327,-5.7271,-5.7258,-5.7272,-5.7225,-5.7229,-5.7314,-5.7399,-5.7218,-5.7222,-5.7541,-5.7551,-5.7559,-5.7739,0,0,0,0,0,0,-5.734,-5.7351,-5.7405,-5.7368,-5.7372,-5.7482,-5.7337,-5.7321,-5.7335,-5.7318,-5.729,-5.7279,-5.722,-5.7308,-5.7319,-5.7402,-5.7226,-5.7533,-5.7545,-5.7556,-5.7725,-5.7753,-5.7777,0,0,0,0,0,-5.7337,-5.7457,-5.7409,-5.7417,-5.7438,-5.7487,-5.749,-5.7419,-5.7343,-5.7397,-5.7361,-5.728,-5.7389,-5.7319,-5.7329,-5.7415,-5.7527,-5.7542,-5.7555,-5.7713,-5.7748,-5.7777,0,0,0,0,0,0,-5.7506,-5.7451,-5.7396,-5.7508,-5.7504,-5.746,-5.7526,-5.7458,-5.7476,-5.7459,-5.7372,-5.7367,-5.7466,-5.7449,-5.7372,-5.7554,-5.7444,-5.7461,-5.7561,-5.7593,-5.7619,-5.7619,-5.723,0,0,0,0,0,-5.7556,-5.7601,-5.755,-5.7653,-5.7654,-5.7591,-5.761,-5.7556,-5.7548,-5.7546,-5.7516,-5.7512,-5.7545,-5.7568,-5.7596,-5.7723,-5.7714,-5.7787,-5.7814,-5.7835,-5.785,-5.7915,-5.7946,-5.7609,-5.7609,-5.7609,0,0,-5.766,-5.7636,-5.7669,-5.7687,-5.7677,-5.7724,-5.759,-5.7647,-5.7681,-5.7554,-5.7632,-5.7612,-5.7601,-5.7708,-5.7754,-5.7697,-5.7942,-5.7853,-5.7871,-5.7874,-5.7933,-5.7965,-5.7993,-5.7619,-5.7617,-5.7616,0,0,-5.7874,-5.7861,-5.7944,-5.7937,-5.7924,-5.7882,-5.7903,-5.787,-5.7851,-5.7928,-5.7834,-5.7874,-5.7933,-5.7929,-5.7935,-5.8149,-5.8074,-5.8161,-5.8296,-5.8361,-5.8387,-5.841,-5.8485,-5.8513,-5.8176,-5.8177,-5.8177,0,-5.8004,-5.8072,-5.7996,-5.8058,-5.8068,-5.7956,-5.804,-5.8038,-5.8035,-5.8045,-5.7982,-5.8054,-5.8039,-5.8143,-5.8195,-5.8204,-5.8224,-5.8162,-5.839,-5.8412,-5.8432,-5.8502,-5.8531,-5.8187,-5.8186,-5.8185,-5.8184,0,-5.8232,-5.8281,-5.835,-5.835,-5.8368,-5.8442,-5.8377,-5.8405,-5.8351,-5.8316,-5.8396,-5.8375,-5.8396,-5.8417,-5.8365,-5.8514,-5.8479,-5.8405,-5.8292,-5.8476,-5.854,-5.8567,-5.8202,-5.8198,-5.8195,-5.8193,0,0,-5.8548,-5.8506,-5.8532,-5.853,-5.8509,-5.8545,-5.8614,-5.8634,-5.8659,-5.8662,-5.8716,-5.877,-5.8701,-5.8708,-5.8655,-5.8712,-5.8881,-5.863,-5.8628,-5.8675,-5.9042,-5.9096,-5.9128,-5.8833,-5.8837,-5.8841,-5.9042,0,-5.8751,-5.8864,-5.8798,-5.8921,-5.8964,-5.886,-5.892,-5.8914,-5.8883,-5.8916,-5.8882,-5.8921,-5.8828,-5.8831,-5.8883,-5.8849,-5.8953,-5.8834,-5.8881,-5.8884,-5.8884,-5.9162,-5.9219,-5.9409,-5.9067,-5.9071,-5.9074,0,-5.9001,-5.9014,-5.9141,-5.9111,-5.9127,-5.9182,-5.9194,-5.9228,-5.9219,-5.9192,-5.9202,-5.9135,-5.92,-5.9092,-5.918,-5.9101,-5.9117,-5.9104,-5.911,-5.9108,-5.8988,-5.9166,-5.9468,-5.9495,-5.9113,-5.911,-5.9107,0,-5.9216,-5.9266,-5.9347,-5.935,-5.9317,-5.9358,-5.9347,-5.9332,-5.9348,-5.936,-5.937,-5.9391,-5.9401,-5.9419,-5.9359,-5.9286,-5.9456,-5.9342,-5.9434,-5.9436,-5.9472,-5.947,-5.9778,-5.9488,-5.9488,-5.9487,-5.9487,0,-5.9447,-5.9528,-5.9443,-5.9493,-5.9582,-5.9507,-5.9596,-5.9574,-5.9562,-5.9606,-5.9519,-5.9562,-5.9482,-5.9518,-5.9473,-5.9552,-5.9559,-5.9539,-5.9525,-5.9545,-5.9547,-5.9551,-5.9536,-5.9495,-5.9493,-5.9492,-5.949,0,-5.97,-5.9646,-5.9728,-5.9692,-5.9684,-5.9751,-5.9719,-5.9764,-5.9729,-5.9786,-5.9795,-5.974,-5.9777,-5.9721,-5.9753,-5.9722,-5.9831,-5.9799,-5.9834,-5.9823,-5.9917,-5.9908,-6.0236,-6.0275,-5.9964,-5.9967,-5.997,0,-5.9849,-5.9909,-5.9879,-5.9902,-5.9895,-5.9934,-5.995,-5.988,-5.99,-5.9895,-5.9941,-5.9971,-5.9991,-6.0057,-6.0019,-6.0043,-6.0009,-6.0123,-6.0012,-6.0029,-6.0007,-6.0003,-6.0008,-6.0144,-6.0148,-6.0151,-6.0153,0,-6.0119,-6.0089,-6.0116,-6.0134,-6.0155,-6.0166,-6.0171,-6.0195,-6.0121,-6.0149,-6.0186,-6.0202,-6.0234,-6.0265,-6.0279,-6.0268,-6.0199,-6.0189,-6.0211,-6.023,-6.0247,-6.0237,-5.9892,-6.0181,-6.0178,-6.0176,-6.0175,-6.0174,-6.0322,-6.037,-6.0356,-6.0388,-6.0385,-6.0391,-6.0431,-6.0401,-6.0431,-6.0451,-6.0408,-6.0456,-6.0446,-6.0458,-6.0455,-6.0491,-6.0442,-6.0474,-6.0482,-6.049,-6.0504,-6.0244,-6.0494,-6.0494,-6.0493,-6.0492,-6.0491,0,-6.0584,-6.0571,-6.0602,-6.061,-6.0636,-6.057,-6.0572,-6.0598,-6.064,-6.0637,-6.0659,-6.0702,-6.0732,-6.0698,-6.0722,-6.0757,-6.0726,-6.0766,-6.0761,-6.0759,-6.0548,-6.0525,-6.0791,-6.0791,-6.079,-6.079,-6.079,-6.079,-6.0724,-6.0801,-6.0771,-6.0846,-6.0831,-6.0877,-6.0883,-6.0889,-6.0886,-6.0937,-6.0962,-6.0939,-6.0924,-6.0946,-6.0971,-6.096,-6.0972,-6.1022,-6.1,-6.0803,-6.0774,-6.0746,-6.0724,-6.1026,-6.1026,-6.1207,-6.1209,-6.121]},{"header":{"parameterUnit":"m.s-1","parameterCategory":1,"la1":30.2991,"la2":30.254,"lo1":-89.0895,"lo2":-89.0444,"dy":0.0017,"dx":0.0017,"nx":28,"ny":28,"refTime":"2024-08-22T09:00:00:Z","depth":0,"parameterNumber":3,"parameterNumberName":"V-component_of_WINDS"},"data":[0,0,0,0,0,0,0,0,0,0,0,0,0,0,0,0,0,0,0,0,0,0,0,0,0,0,0,0,0,0,0,0,0,0,0,0,0,0,0,0,0,0,0,0,0,0,0,0,0,0,0,0,0,0,0,0,0,0,-1.1107,-1.1107,0,-1.1159,-1.116,-1.1161,-1.1184,-1.1184,-1.1184,-1.1184,-1.1232,-1.1234,-1.1235,0,0,0,0,0,0,0,0,0,0,0,0,0,-1.102,-1.1022,-1.1107,-1.1107,-1.1108,-1.1159,-1.116,-1.1161,-1.1184,-1.1184,-1.1184,-1.1183,-1.1232,-1.1234,-1.1235,0,0,0,0,0,0,0,0,0,0,0,0,0,-1.1064,-1.1022,-1.1107,-1.1126,-1.1128,-1.1159,-1.116,-1.1161,-1.1184,-1.1184,-1.1184,-1.1183,-1.1231,-1.1233,-1.1235,-1.125,0,0,-1.1242,-1.1243,0,0,0,0,0,0,0,0,-1.1061,-1.1067,-1.1122,-1.1125,-1.1127,-1.1165,-1.1148,-1.1191,-1.1184,-1.1162,-1.1184,-1.1183,-1.121,-1.1214,-1.1224,-1.1252,-1.1254,-1.1242,-1.1243,-1.1244,-1.1245,0,0,0,0,0,0,0,-1.1058,-1.1065,-1.1127,-1.1123,-1.1126,-1.113,-1.1136,-1.1156,-1.1186,-1.1164,-1.1166,-1.1172,-1.1211,-1.1222,-1.1225,-1.1255,-1.1242,-1.1244,-1.1245,-1.1246,-1.1298,-1.1298,0,0,0,0,0,0,-1.1053,-1.1062,-1.1126,-1.1129,-1.1094,-1.1132,-1.1138,-1.1153,-1.1186,-1.1191,-1.1172,-1.1173,-1.1218,-1.1222,-1.1227,-1.1246,-1.1244,-1.1246,-1.1247,-1.1297,-1.1298,-1.1298,0,0,0,0,0,0,-1.1051,-1.1058,-1.1124,-1.1096,-1.1105,-1.1133,-1.1149,-1.1154,-1.1165,-1.1192,-1.1197,-1.1178,-1.1218,-1.1224,-1.1244,-1.1248,-1.1247,-1.1249,-1.1297,-1.1297,-1.1298,-1.1284,0,0,0,0,0,0,-1.1048,-1.1058,-1.1065,-1.1096,-1.1106,-1.1142,-1.115,-1.1155,-1.1169,-1.117,-1.1198,-1.1203,-1.1219,-1.1241,-1.1246,-1.1251,-1.125,-1.1297,-1.1297,-1.1298,-1.1284,-1.1284,-1.1283,0,0,0,0,0,-1.1045,-1.1058,-1.1065,-1.1073,-1.1116,-1.1142,-1.1148,-1.1167,-1.1169,-1.1175,-1.1193,-1.1202,-1.1246,-1.1243,-1.1249,-1.1254,-1.1297,-1.1297,-1.1298,-1.1284,-1.1284,-1.1283,0,0,0,0,0,0,-1.1024,-1.1062,-1.1071,-1.1094,-1.1115,-1.1146,-1.1155,-1.1166,-1.1185,-1.1185,-1.1207,-1.1213,-1.1231,-1.1244,-1.124,-1.1269,-1.1272,-1.1274,-1.126,-1.126,-1.1259,-1.1256,-1.1252,0,0,0,0,0,-1.1023,-1.1043,-1.1074,-1.1091,-1.1102,-1.1126,-1.1138,-1.1152,-1.1173,-1.1182,-1.1201,-1.122,-1.1238,-1.1249,-1.1268,-1.1286,-1.1292,-1.1292,-1.1292,-1.1291,-1.1292,-1.1302,-1.1302,-1.1299,-1.1299,-1.1299,0,0,-1.1019,-1.1042,-1.1053,-1.1088,-1.1106,-1.1124,-1.1134,-1.1153,-1.1166,-1.1184,-1.1205,-1.1219,-1.1242,-1.1261,-1.1271,-1.1273,-1.1294,-1.1291,-1.1291,-1.1292,-1.1303,-1.1303,-1.1303,-1.1299,-1.1299,-1.1299,0,0,-1.1022,-1.1042,-1.1059,-1.1077,-1.1104,-1.112,-1.1124,-1.1153,-1.1164,-1.1186,-1.12,-1.1215,-1.1246,-1.1261,-1.1273,-1.1281,-1.129,-1.1286,-1.1284,-1.1293,-1.1294,-1.1294,-1.1297,-1.1297,-1.1287,-1.1287,-1.1287,0,-1.1014,-1.1044,-1.1066,-1.1084,-1.1099,-1.1117,-1.1133,-1.1149,-1.1179,-1.1188,-1.119,-1.123,-1.1246,-1.1269,-1.1271,-1.128,-1.1284,-1.1284,-1.1292,-1.1293,-1.1293,-1.1296,-1.1297,-1.1287,-1.1287,-1.1287,-1.1287,0,-1.1032,-1.1053,-1.1062,-1.1094,-1.1109,-1.1126,-1.1149,-1.1161,-1.1172,-1.1188,-1.1209,-1.1229,-1.1252,-1.1258,-1.1269,-1.1283,-1.1283,-1.1288,-1.1292,-1.1293,-1.1296,-1.1297,-1.1286,-1.1286,-1.1286,-1.1286,0,0,-1.1024,-1.1067,-1.1071,-1.1085,-1.1116,-1.1131,-1.1148,-1.1172,-1.1182,-1.1202,-1.1216,-1.1242,-1.1247,-1.1261,-1.1273,-1.1281,-1.1286,-1.1285,-1.1286,-1.1285,-1.1301,-1.1297,-1.1298,-1.1292,-1.1292,-1.1292,-1.13,0,-1.1031,-1.1066,-1.1085,-1.111,-1.1129,-1.1146,-1.1161,-1.118,-1.1195,-1.1211,-1.1226,-1.1245,-1.125,-1.1258,-1.1267,-1.1283,-1.1289,-1.1283,-1.1304,-1.1304,-1.1298,-1.13,-1.1296,-1.1302,-1.1301,-1.1301,-1.1301,0,-1.1045,-1.1067,-1.1094,-1.1123,-1.1131,-1.1145,-1.1168,-1.1183,-1.1205,-1.1215,-1.123,-1.1242,-1.1259,-1.1261,-1.1284,-1.1279,-1.1289,-1.1298,-1.1298,-1.1301,-1.1303,-1.1303,-1.1304,-1.1305,-1.1303,-1.1303,-1.1303,0,-1.1036,-1.1072,-1.1093,-1.1105,-1.1139,-1.1147,-1.1161,-1.1183,-1.1196,-1.1215,-1.1224,-1.1244,-1.1255,-1.127,-1.1286,-1.1286,-1.1307,-1.1311,-1.1315,-1.1315,-1.1319,-1.1319,-1.1323,-1.1325,-1.1325,-1.1325,-1.1325,0,-1.1042,-1.1058,-1.109,-1.1103,-1.1121,-1.1142,-1.1159,-1.1174,-1.1193,-1.1208,-1.1223,-1.1236,-1.1258,-1.1273,-1.1286,-1.1303,-1.1307,-1.1315,-1.1318,-1.1314,-1.1313,-1.1321,-1.1321,-1.1325,-1.1325,-1.1325,-1.1325,0,-1.1036,-1.1058,-1.1082,-1.1112,-1.112,-1.1132,-1.1157,-1.1169,-1.1185,-1.1203,-1.1209,-1.1232,-1.1251,-1.1269,-1.1294,-1.1302,-1.1319,-1.1323,-1.1312,-1.1314,-1.1318,-1.1317,-1.1327,-1.1329,-1.1329,-1.1329,-1.1329,0,-1.1039,-1.1052,-1.1084,-1.1096,-1.1111,-1.1129,-1.1143,-1.1164,-1.1177,-1.1202,-1.1211,-1.1231,-1.1249,-1.1278,-1.1296,-1.1314,-1.1319,-1.1321,-1.1322,-1.1317,-1.1319,-1.1318,-1.1319,-1.1321,-1.1321,-1.132,-1.132,0,-1.1042,-1.1052,-1.1072,-1.1095,-1.1112,-1.1131,-1.115,-1.1158,-1.1182,-1.1196,-1.1216,-1.123,-1.1256,-1.1275,-1.1296,-1.1308,-1.1318,-1.132,-1.1322,-1.1318,-1.1311,-1.1315,-1.1311,-1.132,-1.132,-1.132,-1.132,-1.132,-1.104,-1.1053,-1.1077,-1.1099,-1.1116,-1.1133,-1.1147,-1.1164,-1.1182,-1.1206,-1.1216,-1.1236,-1.1256,-1.1286,-1.1298,-1.1313,-1.1315,-1.1318,-1.1319,-1.1319,-1.1319,-1.1308,-1.1317,-1.1317,-1.1317,-1.1317,-1.1317,0,-1.1044,-1.106,-1.108,-1.1108,-1.1124,-1.1133,-1.1155,-1.1167,-1.1186,-1.1205,-1.1222,-1.1244,-1.1263,-1.1283,-1.1302,-1.131,-1.1315,-1.1315,-1.1315,-1.1317,-1.1315,-1.1312,-1.1311,-1.1311,-1.1311,-1.1311,-1.1311,-1.1311,-1.1048,-1.1069,-1.1082,-1.1111,-1.1127,-1.1149,-1.116,-1.1176,-1.1191,-1.1217,-1.1233,-1.1246,-1.1265,-1.1286,-1.1303,-1.1308,-1.1314,-1.1313,-1.1319,-1.1317,-1.1317,-1.1318,-1.1315,-1.1314,-1.1314,-1.132,-1.132,-1.132]}]]